Regional Weather Roundup
Issued by NWS

Home | Current Version | Previous Version | Graphics & Text | Print | Product List | Glossary On
Versions: 1 2 3 4 5 6 7 8 9 10 11 12 13 14 15 16 17 18 19 20 21 22 23 24 25 26 27 28 29 30 31 32 33 34 35 36 37 38 39 40 41 42 43 44 45 46 47 48 49 50
000
ASUS43 KFSD 311702
RWRSD

WEATHER ROUNDUP FOR SOUTH DAKOTA
NATIONAL WEATHER SERVICE SIOUX FALLS SD
1200 PM CDT THU JUL 31 2014

NOTE: "FAIR" INDICATES FEW OR NO CLOUDS BELOW 12,000 FEET WITH NO
SIGNIFICANT WEATHER AND/OR OBSTRUCTIONS TO VISIBILITY.


SDZ001>005-009-010-012>017-311800-
NORTHWEST AND NORTH CENTRAL SOUTH DAKOTA

CITY           SKY/WX    TMP DP  RH WIND       PRES   REMARKS
BUFFALO          N/A     82  49  31 SW5       30.09S
FAITH            N/A     81  51  35 N5        30.12S
MOBRIDGE       SUNNY     77  57  50 SE6       30.07S
$$

SDZ012>016-024>037-041>051-057-063-072>074-311800-
SOUTHWEST AND SOUTH CENTRAL SOUTH DAKOTA

CITY           SKY/WX    TMP DP  RH WIND       PRES   REMARKS
RAPID CTY ARPT SUNNY     80  52  37 MISG      30.19S
PIERRE         SUNNY     78  58  49 VRB3      30.08F
CUSTER         SUNNY     75  41  29 NE7       30.31S
PHILIP         SUNNY     83  53  35 NW9       30.11F
PINE RIDGE     SUNNY     76  54  46 VRB3      30.19S
WINNER         FAIR      81  57  43 E7        30.10S
$$

SDZ004>011-016>023-039-040-311800-
NORTHEAST SOUTH DAKOTA

CITY           SKY/WX    TMP DP  RH WIND       PRES   REMARKS
ABERDEEN       SUNNY     79  54  41 NE6       30.08S
WATERTOWN      MOSUNNY   76  50  40 VRB5      30.09S
SISSETON         N/A     79  58  48 N9        30.05F
$$

SDZ017-020-022-023-036>040-048>070-311800-
SOUTHEAST SOUTH DAKOTA

CITY           SKY/WX    TMP DP  RH WIND       PRES   REMARKS
SIOUX FALLS    MOSUNNY   77  59  53 CALM      30.08F
HURON          MOSUNNY   78  57  48 NE6       30.08S
CHAMBERLAIN    SUNNY     80  60  50 SE6       30.08F
MITCHELL       PTSUNNY   77  63  61 NE7       30.09R
YANKTON        MOSUNNY   73  61  64 E8        30.08S
$$

ABBREVIATIONS USED IN REMARKS
   TC - TEMPERATURE IN CELSIUS
  WCI - WIND CHILL INDEX
   HX - HEAT INDEX
  VSB - VISIBILITY



USA.gov is the U.S. government's official web portal to all federal, state and local government web resources and services.